OK,60,64,737,60,2014-10-01T01:40:00,0,28072064,201507
OK,60,64,737,60,2014-10-01T01:45:00,0,28072507,201507
OK,60,64,737,60,2014-10-01T01:50:00,0,28072956,201507
OK,210,18,737,210,2014-10-01T01:55:00,1,28073403,201507
OK,210,18,737,210,2014-10-01T02:05:00,0,28074169,201507
OK,210,18,737,210,2014-10-01T02:10:00,0,28074618,201507
OK,210,18,737,210,2014-10-01T02:15:00,0,28075058,201507
OK,210,18,737,210,2014-10-01T02:20:00,0,28075507,201507
OK,210,18,737,210,2014-10-01T02:25:00,0,28075956,201507
OK,210,18,737,210,2014-10-01T02:30:00,0,28076339,201507
OK,210,18,737,210,2014-10-01T02:35:00,0,28076788,201507
OK,210,18,737,210,2014-10-01T02:40:00,0,28077237,201507
OK,210,18,737,210,2014-10-01T02:45:00,0,28077686,201507
OK,210,18,737,210,2014-10-01T02:50:00,0,28078089,201507
OK,210,18,737,210,2014-10-01T02:55:00,0,28078538,201507
OK,210,18,737,210,2014-10-01T03:00:00,0,28078983,201507
OK,210,18,737,210,2014-10-01T03:05:00,0,28079431,201507
OK,210,18,737,210,2014-10-01T03:10:00,0,28079874,201507
OK,210,18,737,210,2014-10-01T03:20:00,0,28080657,201507
OK,93,41,737,93,2014-10-01T03:25:00,3,28081106,201507
OK,93,41,737,93,2014-10-01T03:30:00,4,28081554,201507
OK,68,56,737,68,2014-10-01T03:35:00,2,28082002,201507
OK,104,37,737,104,2014-10-01T03:40:00,2,28082451,201507
OK,115,33,737,115,2014-10-01T03:45:00,0,28082884,201507
OK,93,41,737,93,2014-10-01T03:50:00,2,28083316,201507
OK,80,48,737,80,2014-10-01T03:55:00,4,28083765,201507
OK,86,44,737,86,2014-10-01T04:00:00,5,28084214,201507
OK,88,43,737,88,2014-10-01T04:05:00,2,28084655,201507
OK,68,56,737,68,2014-10-01T04:10:00,4,28085080,201507
OK,89,43,737,89,2014-10-01T04:15:00,4,28085529,201507
OK,83,46,737,83,2014-10-01T04:20:00,4,28085974,201507
OK,69,56,737,69,2014-10-01T04:25:00,6,28086423,201507
OK,81,47,737,81,2014-10-01T04:30:00,12,28086865,201507
OK,81,47,737,81,2014-10-01T04:35:00,10,28087314,201507
OK,95,40,737,95,2014-10-01T04:40:00,9,28087759,201507
OK,96,40,737,96,2014-10-01T04:45:00,15,28088208,201507
OK,109,35,737,109,2014-10-01T04:50:00,15,28088632,201507
OK,104,37,737,104,2014-10-01T04:55:00,10,28089081,201507
OK,72,53,737,72,2014-10-01T05:00:00,6,28089511,201507
OK,91,42,737,91,2014-10-01T05:05:00,10,28089960,201507
OK,89,43,737,89,2014-10-01T05:10:00,18,28090409,201507
OK,110,35,737,110,2014-10-01T05:15:00,20,28090753,201507
OK,105,36,737,105,2014-10-01T05:20:00,27,28091202,201507
OK,99,39,737,99,2014-10-01T05:25:00,24,28091651,201507
OK,102,37,737,102,2014-10-01T05:30:00,19,28092068,201507
OK,152,25,737,152,2014-10-01T05:35:00,20,28092517,201507
OK,161,24,737,161,2014-10-01T05:40:00,23,28092961,201507
OK,155,24,737,155,2014-10-01T05:45:00,21,28093402,201507
OK,137,28,737,137,2014-10-01T05:50:00,22,28093833,201507
OK,114,33,737,114,2014-10-01T05:55:00,11,28094281,201507
OK,101,38,737,101,2014-10-01T06:00:00,8,28094693,201507
OK,100,38,737,100,2014-10-01T06:05:00,12,28095138,201507
OK,126,30,737,126,2014-10-01T06:10:00,12,28095585,201507
OK,115,33,737,115,2014-10-01T06:15:00,11,28096034,201507
OK,114,33,737,114,2014-10-01T06:20:00,6,28096447,201507
OK,103,37,737,103,2014-10-01T06:25:00,9,28096896,201507
OK,98,39,737,98,2014-10-01T06:30:00,16,28097330,201507
OK,101,38,737,101,2014-10-01T06:35:00,18,28097779,201507
OK,108,35,737,108,2014-10-01T06:40:00,12,28098228,201507
OK,87,44,737,87,2014-10-01T06:45:00,12,28098665,201507
OK,85,45,737,85,2014-10-01T06:50:00,16,28099109,201507
OK,87,44,737,87,2014-10-01T07:00:00,8,28099900,201507
OK,95,40,737,95,2014-10-01T07:10:00,9,28100656,201507
OK,115,33,737,115,2014-10-01T07:20:00,14,28101476,201507
OK,96,40,737,96,2014-10-01T07:25:00,13,28101925,201507
OK,107,36,737,107,2014-10-01T07:30:00,12,28102361,201507
OK,110,35,737,110,2014-10-01T07:35:00,9,28102810,201507
OK,102,37,737,102,2014-10-01T07:40:00,11,28103237,201507
OK,102,37,737,102,2014-10-01T07:45:00,13,28103684,201507
OK,99,39,737,99,2014-10-01T07:50:00,10,28104129,201507
OK,103,37,737,103,2014-10-01T07:55:00,15,28104574,201507
OK,100,38,737,100,2014-10-01T08:00:00,16,28105015,201507
OK,83,46,737,83,2014-10-01T08:05:00,7,28105460,201507
OK,87,44,737,87,2014-10-01T08:10:00,7,28105900,201507
OK,87,44,737,87,2014-10-01T08:15:00,5,28106349,201507
OK,93,41,737,93,2014-10-01T08:20:00,7,28106786,201507
OK,94,41,737,94,2014-10-01T08:25:00,12,28107192,201507
OK,91,42,737,91,2014-10-01T08:30:00,15,28107624,201507
OK,101,38,737,101,2014-10-01T08:35:00,11,28108073,201507
OK,101,38,737,101,2014-10-01T08:40:00,13,28108512,201507
OK,97,39,737,97,2014-10-01T08:45:00,7,28108961,201507
OK,97,39,737,97,2014-10-01T08:50:00,3,28109389,201507
OK,104,37,737,104,2014-10-01T09:00:00,2,28110181,201507
OK,110,35,737,110,2014-10-01T09:05:00,4,28110630,201507
OK,103,37,737,103,2014-10-01T09:10:00,6,28111053,201507
OK,96,40,737,96,2014-10-01T09:15:00,8,28111502,201507
OK,85,45,737,85,2014-10-01T09:20:00,8,28111931,201507
OK,87,44,737,87,2014-10-01T09:30:00,9,28112721,201507
OK,95,40,737,95,2014-10-01T09:35:00,12,28113170,201507
OK,76,50,737,76,2014-10-01T09:40:00,7,28113594,201507
OK,100,38,737,100,2014-10-01T09:45:00,5,28114043,201507
OK,99,39,737,99,2014-10-01T09:50:00,3,28114475,201507
OK,98,39,737,98,2014-10-01T10:00:00,10,28115278,201507
OK,86,44,737,86,2014-10-01T10:05:00,5,28115727,201507
OK,92,42,737,92,2014-10-01T10:10:00,7,28116139,201507
OK,94,41,737,94,2014-10-01T10:15:00,8,28116588,201507
OK,108,35,737,108,2014-10-01T10:20:00,7,28116996,201507
OK,114,33,737,114,2014-10-01T10:25:00,6,28117445,201507
OK,90,42,737,90,2014-10-01T10:30:00,6,28117870,201507
OK,96,40,737,96,2014-10-01T10:35:00,13,28118319,201507
OK,105,36,737,105,2014-10-01T10:40:00,12,28118764,201507
OK,86,44,737,86,2014-10-01T10:45:00,5,28119211,201507
OK,110,35,737,110,2014-10-01T10:50:00,4,28119655,201507
OK,112,34,737,112,2014-10-01T10:55:00,7,28120103,201507
OK,94,41,737,94,2014-10-01T11:00:00,8,28120551,201507
OK,79,48,737,79,2014-10-01T11:10:00,7,28121383,201507
OK,78,49,737,78,2014-10-01T11:15:00,8,28121832,201507
OK,84,46,737,84,2014-10-01T11:20:00,4,28122270,201507
OK,67,57,737,67,2014-10-01T11:25:00,4,28122719,201507
OK,98,39,737,98,2014-10-01T11:30:00,7,28123160,201507
OK,94,41,737,94,2014-10-01T11:35:00,11,28123609,201507
OK,82,47,737,82,2014-10-01T11:40:00,14,28124041,201507
OK,73,52,737,73,2014-10-01T11:45:00,11,28124490,201507
OK,80,48,737,80,2014-10-01T11:50:00,3,28124892,201507
OK,107,36,737,107,2014-10-01T11:55:00,3,28125341,201507
OK,103,37,737,103,2014-10-01T12:00:00,7,28125770,201507
OK,131,29,737,131,2014-10-01T12:10:00,5,28126571,201507
OK,86,44,737,86,2014-10-01T12:15:00,5,28127020,201507
OK,87,44,737,87,2014-10-01T12:20:00,4,28127469,201507
OK,90,42,737,90,2014-10-01T12:25:00,2,28127918,201507
OK,86,44,737,86,2014-10-01T12:30:00,14,28128346,201507
OK,81,47,737,81,2014-10-01T12:35:00,12,28128795,201507
OK,99,39,737,99,2014-10-01T12:40:00,4,28129230,201507
OK,107,36,737,107,2014-10-01T12:45:00,9,28129679,201507
OK,105,36,737,105,2014-10-01T12:50:00,6,28130113,201507
OK,85,45,737,85,2014-10-01T12:55:00,3,28130562,201507
OK,117,33,737,117,2014-10-01T13:00:00,2,28130990,201507
OK,133,29,737,133,2014-10-01T13:05:00,8,28131439,201507
OK,107,36,737,107,2014-10-01T13:10:00,5,28131876,201507
OK,89,43,737,89,2014-10-01T13:15:00,3,28132325,201507
OK,111,34,737,111,2014-10-01T13:20:00,7,28132763,201507
OK,102,37,737,102,2014-10-01T13:25:00,10,28133210,201507
OK,78,49,737,78,2014-10-01T13:30:00,7,28133648,201507
OK,126,30,737,126,2014-10-01T13:35:00,3,28134097,201507
OK,143,27,737,143,2014-10-01T13:40:00,2,28134536,201507
OK,97,39,737,97,2014-10-01T13:45:00,5,28134985,201507
OK,97,39,737,97,2014-10-01T13:50:00,5,28135404,201507
OK,120,32,737,120,2014-10-01T13:55:00,6,28135853,201507
OK,101,38,737,101,2014-10-01T14:00:00,8,28136290,201507
OK,101,38,737,101,2014-10-01T14:05:00,7,28136739,201507
OK,81,47,737,81,2014-10-01T14:10:00,5,28137179,201507
OK,74,52,737,74,2014-10-01T14:15:00,4,28137628,201507
OK,95,40,737,95,2014-10-01T14:20:00,4,28138062,201507
OK,110,35,737,110,2014-10-01T14:25:00,7,28138511,201507
OK,97,39,737,97,2014-10-01T14:30:00,10,28138939,201507
OK,103,37,737,103,2014-10-01T14:35:00,7,28139388,201507
OK,82,47,737,82,2014-10-01T14:40:00,4,28139799,201507
OK,81,47,737,81,2014-10-01T14:45:00,3,28140248,201507
OK,94,41,737,94,2014-10-01T14:50:00,6,28140690,201507
OK,95,40,737,95,2014-10-01T14:55:00,10,28141138,201507
OK,97,39,737,97,2014-10-01T15:00:00,9,28141565,201507
OK,93,41,737,93,2014-10-01T15:05:00,8,28142014,201507
OK,102,37,737,102,2014-10-01T15:10:00,10,28142442,201507
OK,102,37,737,102,2014-10-01T15:15:00,10,28142891,201507
OK,84,46,737,84,2014-10-01T15:20:00,5,28143318,201507
OK,85,45,737,85,2014-10-01T15:25:00,8,28143767,201507
OK,79,48,737,79,2014-10-01T15:30:00,7,28144215,201507
OK,69,56,737,69,2014-10-01T15:35:00,3,28144664,201507
OK,75,51,737,75,2014-10-01T15:40:00,3,28145084,201507
OK,94,41,737,94,2014-10-01T15:45:00,8,28145499,201507
OK,102,37,737,102,2014-10-01T15:50:00,9,28145948,201507
OK,88,43,737,88,2014-10-01T15:55:00,6,28146397,201507
OK,103,37,737,103,2014-10-01T16:00:00,5,28146846,201507
OK,97,39,737,97,2014-10-01T16:05:00,5,28147254,201507
OK,88,43,737,88,2014-10-01T16:10:00,6,28147698,201507
OK,85,45,737,85,2014-10-01T16:15:00,6,28148147,201507
OK,85,45,737,85,2014-10-01T16:20:00,3,28148548,201507
OK,115,33,737,115,2014-10-01T16:25:00,2,28148997,201507
OK,87,44,737,87,2014-10-01T16:30:00,3,28149436,201507
OK,74,52,737,74,2014-10-01T16:35:00,10,28149885,201507
OK,68,56,737,68,2014-10-01T16:40:00,11,28150311,201507
OK,98,39,737,98,2014-10-01T16:45:00,5,28150760,201507
OK,87,44,737,87,2014-10-01T16:50:00,5,28151178,201507
OK,87,44,737,87,2014-10-01T16:55:00,3,28151627,201507
OK,104,37,737,104,2014-10-01T17:05:00,6,28152076,201507
OK,87,44,737,87,2014-10-01T17:10:00,8,28152525,201507
OK,75,51,737,75,2014-10-01T17:15:00,7,28152971,201507
OK,91,42,737,91,2014-10-01T17:20:00,5,28153418,201507
OK,67,57,737,67,2014-10-01T17:25:00,4,28153867,201507
OK,69,56,737,69,2014-10-01T17:30:00,5,28154277,201507
OK,83,46,737,83,2014-10-01T17:35:00,4,28154726,201507
OK,131,29,737,131,2014-10-01T17:40:00,1,28155168,201507
OK,95,40,737,95,2014-10-01T17:45:00,4,28155616,201507
OK,95,40,737,95,2014-10-01T17:50:00,8,28156034,201507
OK,134,28,737,134,2014-10-01T17:55:00,4,28156483,201507
OK,105,36,737,105,2014-10-01T18:00:00,2,28156931,201507
OK,97,39,737,97,2014-10-01T18:05:00,4,28157370,201507
OK,99,39,737,99,2014-10-01T18:10:00,3,28157800,201507
OK,96,40,737,96,2014-10-01T18:15:00,4,28158248,201507
OK,89,43,737,89,2014-10-01T18:20:00,3,28158692,201507
OK,81,47,737,81,2014-10-01T18:25:00,1,28159137,201507
OK,65,59,737,65,2014-10-01T18:35:00,4,28159919,201507
OK,62,62,737,62,2014-10-01T18:40:00,1,28160368,201507
OK,62,62,737,62,2014-10-01T18:45:00,0,28160817,201507
OK,87,44,737,87,2014-10-01T18:50:00,2,28161255,201507
OK,91,42,737,91,2014-10-01T18:55:00,5,28161704,201507
OK,86,44,737,86,2014-10-01T19:00:00,4,28162121,201507
OK,81,47,737,81,2014-10-01T19:05:00,4,28162570,201507
OK,74,52,737,74,2014-10-01T19:10:00,5,28162964,201507
OK,76,50,737,76,2014-10-01T19:15:00,2,28163403,201507
OK,73,52,737,73,2014-10-01T19:20:00,2,28163851,201507
OK,68,56,737,68,2014-10-01T19:25:00,1,28164300,201507
OK,74,52,737,74,2014-10-01T19:30:00,1,28164731,201507
OK,104,37,737,104,2014-10-01T19:35:00,2,28165180,201507
OK,105,36,737,105,2014-10-01T19:40:00,1,28165605,201507
OK,90,42,737,90,2014-10-01T19:45:00,3,28166053,201507
OK,66,58,737,66,2014-10-01T19:55:00,5,28166856,201507
OK,64,60,737,64,2014-10-01T20:00:00,4,28167305,201507
OK,99,39,737,99,2014-10-01T20:10:00,4,28168167,201507
OK,100,38,737,100,2014-10-01T20:15:00,3,28169061,201507
OK,108,35,737,108,2014-10-01T20:25:00,0,28169510,201507
OK,108,35,737,108,2014-10-01T20:30:00,0,28169958,201507
OK,110,35,737,110,2014-10-01T20:35:00,1,28170384,201507
OK,110,35,737,110,2014-10-01T20:40:00,1,28170829,201507
OK,93,41,737,93,2014-10-01T20:45:00,2,28171277,201507
OK,119,32,737,119,2014-10-01T20:50:00,1,28171714,201507
OK,89,43,737,89,2014-10-01T20:55:00,2,28172160,201507
OK,80,48,737,80,2014-10-01T21:00:00,3,28172608,201507
OK,74,52,737,74,2014-10-01T21:10:00,0,28173500,201507
OK,70,55,737,70,2014-10-01T21:20:00,1,28174390,201507
OK,91,42,737,91,2014-10-01T21:25:00,1,28175213,201507
OK,91,42,737,91,2014-10-01T21:35:00,0,28175661,201507
OK,91,42,737,91,2014-10-01T21:40:00,0,28176110,201507
OK,91,42,737,91,2014-10-01T21:45:00,0,28176559,201507
OK,91,42,737,91,2014-10-01T21:50:00,0,28177359,201507
OK,91,42,737,91,2014-10-01T21:55:00,0,28177803,201507
OK,91,42,737,91,2014-10-01T22:05:00,0,28178250,201507
OK,91,42,737,91,2014-10-01T22:10:00,0,28178699,201507
OK,91,42,737,91,2014-10-01T22:15:00,0,28179146,201507
OK,88,43,737,88,2014-10-01T22:20:00,1,28179580,201507
OK,88,43,737,88,2014-10-01T22:25:00,1,28180023,201507
OK,88,43,737,88,2014-10-01T22:35:00,0,28180868,201507
OK,88,43,737,88,2014-10-01T22:40:00,0,28181740,201507
OK,88,43,737,88,2014-10-01T22:45:00,0,28182187,201507
OK,88,43,737,88,2014-10-01T22:55:00,0,28182636,201507
OK,88,43,737,88,2014-10-01T23:00:00,0,28183486,201507
OK,88,43,737,88,2014-10-01T23:05:00,0,28183931,201507
OK,88,43,737,88,2014-10-01T23:10:00,0,28184380,201507
OK,88,43,737,88,2014-10-01T23:15:00,0,28184817,201507
OK,77,50,737,77,2014-10-01T23:20:00,1,28185263,201507
OK,76,50,737,76,2014-10-01T23:25:00,2,28185694,201507
OK,76,50,737,76,2014-10-01T23:30:00,0,28186086,201507
OK,76,50,737,76,2014-10-01T23:35:00,0,28186535,201507
OK,76,50,737,76,2014-10-01T23:40:00,0,28186933,201507
OK,76,50,737,76,2014-10-01T23:45:00,0,28187375,201507
OK,76,50,737,76,2014-10-01T23:50:00,0,28187824,201507
OK,76,50,737,76,2014-10-01T23:55:00,0,28188265,201507
OK,76,50,737,76,2014-10-02T00:00:00,0,28188701,201507
OK,76,50,737,76,2014-10-02T00:10:00,0,28189150,201507
OK,76,50,737,76,2014-10-02T00:15:00,0,28189599,201507
OK,76,50,737,76,2014-10-02T00:20:00,0,28190021,201507
OK,76,50,737,76,2014-10-02T00:30:00,0,28190823,201507
OK,76,50,737,76,2014-10-02T00:35:00,0,28191272,201507
OK,76,50,737,76,2014-10-02T00:45:00,0,28192027,201507
OK,76,50,737,76,2014-10-02T00:50:00,0,28192476,201507
OK,76,50,737,76,2014-10-02T00:55:00,0,28192909,201507
OK,76,50,737,76,2014-10-02T01:05:00,0,28193720,201507
OK,76,50,737,76,2014-10-02T01:10:00,0,28194169,201507
OK,76,50,737,76,2014-10-02T01:15:00,0,28194618,201507
OK,76,50,737,76,2014-10-02T01:25:00,0,28195303,201507
OK,76,50,737,76,2014-10-02T01:30:00,0,28195752,201507
OK,76,50,737,76,2014-10-02T01:35:00,0,28196201,201507
OK,76,50,737,76,2014-10-02T01:40:00,0,28196485,201507
OK,76,50,737,76,2014-10-02T01:45:00,0,28196934,201507
OK,76,50,737,76,2014-10-02T01:50:00,0,28197357,201507
OK,76,50,737,76,2014-10-02T01:55:00,0,28197806,201507
OK,76,50,737,76,2014-10-02T02:00:00,0,28198254,201507
OK,76,50,737,76,2014-10-02T02:05:00,0,28198702,201507
OK,76,50,737,76,2014-10-02T02:10:00,0,28199151,201507
OK,76,50,737,76,2014-10-02T02:15:00,0,28199523,201507
OK,76,50,737,76,2014-10-02T02:20:00,0,28199965,201507
OK,76,50,737,76,2014-10-02T02:25:00,0,28200407,201507
OK,76,50,737,76,2014-10-02T02:30:00,0,28200850,201507
OK,76,50,737,76,2014-10-02T02:35:00,0,28201299,201507
OK,55,70,737,55,2014-10-02T02:45:00,0,28201730,201507
OK,95,40,737,95,2014-10-02T02:50:00,1,28202179,201507
OK,95,40,737,95,2014-10-02T02:55:00,0,28202628,201507
OK,95,40,737,95,2014-10-02T03:00:00,0,28203070,201507
OK,95,40,737,95,2014-10-02T03:05:00,0,28203518,201507
OK,84,46,737,84,2014-10-02T03:10:00,1,28203953,201507
OK,84,46,737,84,2014-10-02T03:30:00,0,28204402,201507
OK,85,45,737,85,2014-10-02T03:35:00,1,28204851,201507
OK,85,45,737,85,2014-10-02T03:40:00,0,28205300,201507
OK,83,46,737,83,2014-10-02T03:45:00,1,28205728,201507
OK,83,46,737,83,2014-10-02T03:55:00,0,28206558,201507
OK,83,46,737,83,2014-10-02T04:00:00,0,28207007,201507
OK,83,46,737,83,2014-10-02T04:05:00,0,28207456,201507
OK,58,66,737,58,2014-10-02T04:10:00,3,28207875,201507
OK,57,67,737,57,2014-10-02T04:15:00,0,28208324,201507
OK,77,50,737,77,2014-10-02T04:20:00,6,28208751,201507
OK,62,62,737,62,2014-10-02T04:25:00,0,28209200,201507
OK,89,43,737,89,2014-10-02T04:30:00,16,28209638,201507
OK,76,50,737,76,2014-10-02T04:35:00,8,28210087,201507
OK,63,61,737,63,2014-10-02T04:40:00,3,28210510,201507
OK,62,62,737,62,2014-10-02T04:45:00,0,28210959,201507
OK,62,62,737,62,2014-10-02T04:50:00,0,28211384,201507
OK,111,34,737,111,2014-10-02T05:00:00,4,28212206,201507
OK,95,40,737,95,2014-10-02T05:05:00,10,28212655,201507
OK,85,45,737,85,2014-10-02T05:10:00,4,28213084,201507
OK,113,34,737,113,2014-10-02T05:15:00,11,28213533,201507
OK,121,31,737,121,2014-10-02T05:20:00,4,28213971,201507
OK,80,48,737,80,2014-10-02T05:25:00,14,28214420,201507
OK,108,35,737,108,2014-10-02T05:30:00,3,28214833,201507
OK,108,35,737,108,2014-10-02T05:35:00,0,28215282,201507
OK,117,33,737,117,2014-10-02T05:40:00,19,28215698,201507
OK,102,37,737,102,2014-10-02T05:45:00,9,28216147,201507
OK,113,34,737,113,2014-10-02T05:50:00,0,28216486,201507
OK,101,38,737,101,2014-10-02T05:55:00,11,28216926,201507
OK,92,42,737,92,2014-10-02T06:00:00,10,28217373,201507
OK,97,39,737,97,2014-10-02T06:05:00,9,28217822,201507
OK,96,40,737,96,2014-10-02T06:10:00,0,28218261,201507
OK,129,29,737,129,2014-10-02T06:15:00,14,28218710,201507
OK,134,28,737,134,2014-10-02T06:20:00,15,28219130,201507
OK,125,30,737,125,2014-10-02T06:30:00,18,28219952,201507
OK,93,41,737,93,2014-10-02T06:35:00,9,28220401,201507
OK,111,34,737,111,2014-10-02T06:40:00,5,28220835,201507
OK,87,44,737,87,2014-10-02T06:45:00,7,28221284,201507
OK,89,43,737,89,2014-10-02T07:00:00,8,28221951,201507
OK,80,48,737,80,2014-10-02T07:05:00,7,28222096,201507
OK,102,37,737,102,2014-10-02T07:10:00,7,28222545,201507
OK,108,35,737,108,2014-10-02T07:15:00,3,28222994,201507
OK,117,33,737,117,2014-10-02T07:20:00,0,28223425,201507
OK,90,42,737,90,2014-10-02T07:25:00,12,28223860,201507
OK,84,46,737,84,2014-10-02T07:35:00,6,28224663,201507
OK,89,43,737,89,2014-10-02T07:40:00,1,28225112,201507
OK,93,41,737,93,2014-10-02T07:50:00,7,28225883,201507
OK,106,36,737,106,2014-10-02T07:55:00,6,28226332,201507
OK,107,36,737,107,2014-10-02T08:00:00,3,28226773,201507
OK,88,43,737,88,2014-10-02T08:05:00,6,28227222,201507
OK,96,40,737,96,2014-10-02T08:10:00,2,28227637,201507
OK,81,47,737,81,2014-10-02T08:20:00,3,28228445,201507
OK,100,38,737,100,2014-10-02T08:25:00,6,28228894,201507
OK,74,52,737,74,2014-10-02T08:30:00,1,28229304,201507
OK,83,46,737,83,2014-10-02T08:40:00,0,28230103,201507
OK,83,46,737,83,2014-10-02T08:45:00,0,28230552,201507
OK,100,38,737,100,2014-10-02T08:50:00,7,28230918,201507
OK,100,38,737,100,2014-10-02T08:55:00,3,28231365,201507
OK,101,38,737,101,2014-10-02T09:00:00,9,28231790,201507
OK,109,35,737,109,2014-10-02T09:15:00,6,28232581,201507
OK,98,39,737,98,2014-10-02T09:20:00,0,28233030,201507
OK,69,56,737,69,2014-10-02T09:25:00,3,28233479,201507
OK,91,42,737,91,2014-10-02T09:30:00,1,28233903,201507
OK,74,52,737,74,2014-10-02T09:40:00,2,28234685,201507
OK,71,54,737,71,2014-10-02T09:45:00,5,28235134,201507
OK,74,52,737,74,2014-10-02T09:50:00,2,28235561,201507
OK,102,37,737,102,2014-10-02T09:55:00,8,28236010,201507
OK,100,38,737,100,2014-10-02T10:00:00,4,28236453,201507
OK,80,48,737,80,2014-10-02T10:10:00,3,28237302,201507
OK,100,38,737,100,2014-10-02T10:15:00,2,28237750,201507
OK,177,21,737,177,2014-10-02T10:20:00,1,28238199,201507
OK,128,30,737,128,2014-10-02T10:25:00,2,28238646,201507
OK,80,48,737,80,2014-10-02T10:30:00,0,28239087,201507
OK,88,43,737,88,2014-10-02T10:35:00,10,28239536,201507
OK,88,43,737,88,2014-10-02T10:40:00,15,28239966,201507
OK,101,38,737,101,2014-10-02T10:45:00,13,28240415,201507
OK,110,35,737,110,2014-10-02T10:50:00,4,28240859,201507
OK,85,45,737,85,2014-10-02T10:55:00,8,28241308,201507
OK,168,23,737,168,2014-10-02T11:00:00,1,28241740,201507
OK,99,39,737,99,2014-10-02T11:10:00,6,28242584,201507
OK,91,42,737,91,2014-10-02T11:15:00,3,28243033,201507
OK,88,43,737,88,2014-10-02T11:20:00,5,28243482,201507
OK,83,46,737,83,2014-10-02T11:25:00,2,28243807,201507
OK,88,43,737,88,2014-10-02T11:30:00,0,28244245,201507
OK,91,42,737,91,2014-10-02T11:35:00,2,28244674,201507
OK,91,42,737,91,2014-10-02T11:40:00,0,28245123,201507
OK,91,42,737,91,2014-10-02T11:45:00,0,28245572,201507
OK,114,33,737,114,2014-10-02T11:50:00,9,28245978,201507
OK,105,36,737,105,2014-10-02T11:55:00,13,28246427,201507
OK,102,37,737,102,2014-10-02T12:00:00,13,28246864,201507
OK,102,37,737,102,2014-10-02T12:05:00,5,28247312,201507
OK,103,37,737,103,2014-10-02T12:10:00,0,28247759,201507
OK,98,39,737,98,2014-10-02T12:15:00,9,28248189,201507
OK,94,41,737,94,2014-10-02T12:20:00,4,28248638,201507
OK,95,40,737,95,2014-10-02T12:25:00,4,28249085,201507
OK,108,35,737,108,2014-10-02T12:30:00,2,28249513,201507
OK,107,36,737,107,2014-10-02T12:35:00,5,28249956,201507
OK,115,33,737,115,2014-10-02T12:45:00,16,28251105,201507
OK,110,35,737,110,2014-10-02T13:20:00,10,28251650,201507
OK,100,38,737,100,2014-10-02T13:30:00,10,28252099,201507
OK,95,40,737,95,2014-10-02T13:35:00,4,28252235,201507
OK,95,40,737,95,2014-10-02T13:40:00,0,28252683,201507
OK,92,42,737,92,2014-10-02T13:50:00,8,28253542,201507
OK,102,37,737,102,2014-10-02T13:55:00,8,28254270,201507
OK,84,46,737,84,2014-10-02T14:15:00,7,28254845,201507
OK,94,41,737,94,2014-10-02T14:20:00,7,28255294,201507
OK,101,38,737,101,2014-10-02T14:25:00,0,28255742,201507
OK,115,33,737,115,2014-10-02T14:30:00,9,28256171,201507
OK,116,33,737,116,2014-10-02T14:40:00,5,28257048,201507
OK,102,37,737,102,2014-10-02T14:45:00,6,28257497,201507
OK,114,33,737,114,2014-10-02T14:50:00,11,28257938,201507
OK,114,33,737,114,2014-10-02T14:55:00,7,28258385,201507
OK,99,39,737,99,2014-10-02T15:00:00,6,28258819,201507
OK,88,43,737,88,2014-10-02T15:05:00,3,28259265,201507
OK,88,43,737,88,2014-10-02T15:10:00,3,28259713,201507
OK,114,33,737,114,2014-10-02T15:20:00,2,28260594,201507
OK,86,44,737,86,2014-10-02T15:25:00,6,28261037,201507
OK,114,33,737,114,2014-10-02T15:35:00,8,28261846,201507
OK,114,33,737,114,2014-10-02T15:40:00,8,28262295,201507
OK,107,36,737,107,2014-10-02T15:45:00,3,28262742,201507
OK,64,60,737,64,2014-10-02T15:50:00,1,28263620,201507
OK,64,60,737,64,2014-10-02T15:55:00,0,28264020,201507
OK,87,44,737,87,2014-10-02T16:05:00,6,28264469,201507
OK,101,38,737,101,2014-10-02T16:10:00,6,28265354,201507
OK,101,38,737,101,2014-10-02T16:15:00,6,28265745,201507
OK,107,36,737,107,2014-10-02T16:25:00,5,28266192,201507
OK,94,41,737,94,2014-10-02T16:30:00,8,28266641,201507
OK,66,58,737,66,2014-10-02T16:35:00,3,28267413,201507
OK,75,51,737,75,2014-10-02T16:45:00,4,28267862,201507
OK,74,52,737,74,2014-10-02T16:50:00,3,28268311,201507
OK,128,30,737,128,2014-10-02T16:55:00,5,28268753,201507
OK,72,53,737,72,2014-10-02T17:00:00,3,28269202,201507
OK,84,46,737,84,2014-10-02T17:05:00,3,28269651,201507
OK,86,44,737,86,2014-10-02T17:10:00,0,28270086,201507
OK,95,40,737,95,2014-10-02T17:20:00,7,28270969,201507
OK,95,40,737,95,2014-10-02T17:25:00,3,28271417,201507
OK,94,41,737,94,2014-10-02T17:30:00,4,28271847,201507
OK,89,43,737,89,2014-10-02T17:35:00,0,28272296,201507
OK,89,43,737,89,2014-10-02T17:40:00,0,28272731,201507
OK,85,45,737,85,2014-10-02T17:45:00,5,28273173,201507
OK,85,45,737,85,2014-10-02T17:50:00,1,28273621,201507
OK,93,41,737,93,2014-10-02T17:55:00,2,28274067,201507
OK,93,41,737,93,2014-10-02T18:00:00,4,28274516,201507
OK,73,52,737,73,2014-10-02T18:05:00,1,28274845,201507
OK,73,52,737,73,2014-10-02T18:10:00,0,28275290,201507
OK,73,52,737,73,2014-10-02T18:15:00,0,28276173,201507
OK,71,54,737,71,2014-10-02T18:20:00,3,28276568,201507
OK,96,40,737,96,2014-10-02T18:35:00,0,28277016,201507
OK,96,40,737,96,2014-10-02T18:40:00,0,28277465,201507
OK,177,21,737,177,2014-10-02T18:45:00,1,28277914,201507